This is the latest recevied weather packets stored in our database for station/object DL9GJ-6. If no packets are shown the sender has not sent any weather packets the latest 10 day(s).
| Time | Temp. | Humidity | Pressure | Rain* | Wind** | Luminosity | Snow |
|---|---|---|---|---|---|---|---|
| 1777470480 | 18.33° C | 38% | 1018.9 hPa | 0 mm | - | 513 W/m² | - |
| 1777470120 | 18.89° C | 37% | 1018.9 hPa | 0 mm | - | 526 W/m² | - |
| 1777469760 | 19.44° C | 37% | 1019 hPa | 0 mm | - | 544 W/m² | - |
| 1777469450 | 18.89° C | 36% | 1018.9 hPa | 0 mm | - | 571 W/m² | - |
| 1777469399 | 18.89° C | 35% | 1019 hPa | 0 mm | - | 597 W/m² | - |
| 1777469090 | 18.33° C | 36% | 1019 hPa | 0 mm | - | 629 W/m² | - |
| 1777469040 | 18.33° C | 36% | 1019 hPa | 0 mm | - | 629 W/m² | - |
| 1777468680 | 18.89° C | 38% | 1018.9 hPa | 0 mm | - | 661 W/m² | - |
| 1777468320 | 18.33° C | 37% | 1018.9 hPa | 0 mm | - | 694 W/m² | - |
| 1777467958 | 18.33° C | 38% | 1018.9 hPa | 0 mm | - | 722 W/m² | - |
| 1777467598 | 18.33° C | 37% | 1019 hPa | 0 mm | - | 742 W/m² | - |
| 1777467239 | 18.33° C | 37% | 1019 hPa | 0 mm | - | 747 W/m² | - |
| 1777466879 | 18.33° C | 38% | 1019 hPa | 0 mm | - | 751 W/m² | - |
| 1777466519 | 18.33° C | 37% | 1019.1 hPa | 0 mm | - | 760 W/m² | - |
| 1777466212 | 18.33° C | 37% | 1019 hPa | 0 mm | - | 767 W/m² | - |
| 1777466160 | 18.33° C | 37% | 1019 hPa | 0 mm | - | 767 W/m² | - |
| 1777465850 | 19.44° C | 37% | 1018.9 hPa | 0 mm | - | 779 W/m² | - |
| 1777465799 | 18.89° C | 40% | 1018.9 hPa | 0 mm | - | 782 W/m² | - |
| 1777465439 | 18.89° C | 38% | 1019 hPa | 0 mm | - | 788 W/m² | - |
| 1777465079 | 18.33° C | 38% | 1018.9 hPa | 0 mm | - | 791 W/m² | - |
| 1777464719 | 18.33° C | 39% | 1019 hPa | 0 mm | - | 801 W/m² | - |
| 1777464360 | 17.78° C | 41% | 1019 hPa | 0 mm | - | 808 W/m² | - |
| 1777463999 | 18.33° C | 38% | 1019.2 hPa | 0 mm | - | 817 W/m² | - |
| 1777463639 | 17.78° C | 42% | 1019.1 hPa | 0 mm | - | 817 W/m² | - |
| 1777463330 | 17.22° C | 39% | 1019.2 hPa | 0 mm | - | 821 W/m² | - |
* Rain latest hour (hover to see other rain measurements)
** Current wind speed in m/s (hover to see current wind gust speed)